User: anonymous   Login
Location: Caltech
(34.1382°N, 118.1253°W)
Time: 06:15:14
(UTC-08:00)
Language:

CZ-2C R/B - Orbit

View from above orbital plane
View from above orbital plane
View from above satellite
View from above satellite

Ground track
Ground track

The orbit data is extracted from the following two-line orbital elements,

1 28480U 04046B   16339.19850470  .00000023  00000-0  23709-4 0  9992
2 28480  98.1945  82.0007 0143229  80.1281 339.8038 14.25618866626452
Epoch (UTC): 04 December 2016 04:45:50
Eccentricity: 0.0143229
inclination: 98.1945°
perigee height: 703 km
apogee height: 909 km
right ascension of ascending node: 82.0007°
argument of perigee: 80.1281°
revolutions per day: 14.25618866
mean anomaly at epoch: 339.8038°
orbit number at epoch: 62645

The dashed part of the orbit path shows where the satellite is in the earth's shadow,  

DLR